St. Cloud, MN

4:22 PM CST on November 12, 2019 (GMT -0600)
Saint Cloud Regional

Weather History for KSTC - May, 2019

Change the Weather History Date:

Saturday, May 25, 2019

  Actual Average Record
Temperature  
Mean Temperature 55 °F 59 °F  
Max Temperature 64 °F 71 °F 93 °F (1978)
Min Temperature 46 °F 47 °F 31 °F (1913)
Degree Days  
Heating Degree Days 10 7  
Month to date heating degree days 374 251  
Since 1 July heating degree days 9172 8418  
Cooling Degree Days 0 1  
Month to date cooling degree days 0 17  
Year to date cooling degree days 0 19  
Growing Degree Days 5 (Base 50)    
Moisture  
Dew Point 48 °F    
Average Humidity 72    
Maximum Humidity 93    
Minimum Humidity 52    
Precipitation  
Precipitation 0.00 in 0.10 in 2.30 in (1907)
Month to date precipitation 5.77 2.35  
Year to date precipitation 13.12 7.71  
Snow  
Snow 0.00 in 0.00 in 0.00 in ()
Month to date snowfall 0.4 0.0  
Since 1 July snowfall 68.9 45.7  
Snow Depth 0.00 in    
Sea Level Pressure  
Sea Level Pressure 29.87 in    
Wind  
Wind Speed 10 mph ()    
Max Wind Speed 18 mph    
Max Gust Speed 28 mph    
Visibility 10.0 miles    
Events      
T = Trace of Precipitation, MM = Missing Value Source: Averaged Metar Reports

Daily Weather History Graph

Daily Weather History Graph

Search for Another Location

Airport or City:

Astronomy

May. 25, 2019 Rise Set
Actual Time 5:35 AM CDT 8:51 PM CDT
Civil Twilight 4:59 AM CDT 9:27 PM CDT
Nautical Twilight 4:12 AM CDT 10:14 PM CDT
Astronomical Twilight 3:14 AM CDT 11:12 PM CDT
Moon 1:49 AM CDT (5/25) 11:39 AM CDT (5/25)
Length of Visible Light 16h 27m
Length of Day
15h 15m
Waning Gibbous, 59% of the Moon is Illuminated
May 25
Waning Gibbous
May 26
Last Quarter
Jun 3
New
Jun 10
First Quarter
Jun 17
Full

Hourly Weather History & Observations

Time (CDT) Temp. Dew Point Humidity Pressure Visibility Wind Dir Wind Speed Gust Speed Precip Events Conditions
12:53 AM 60.1 °F 55.9 °F 86% 29.69 in 10.0 mi South 10.4 mph - N/A   Clear
1:53 AM 57.9 °F 54.0 °F 87% 29.70 in 10.0 mi SSW 8.1 mph - N/A   Clear
2:53 AM 57.9 °F 53.1 °F 84% 29.70 in 10.0 mi SW 8.1 mph - N/A   Clear
3:53 AM 57.0 °F 51.1 °F 81% 29.71 in 10.0 mi WSW 10.4 mph - N/A   Clear
4:53 AM 55.0 °F 46.0 °F 72% 29.73 in 10.0 mi West 9.2 mph - N/A   Clear
5:53 AM 53.1 °F 44.1 °F 71% 29.75 in 10.0 mi West 12.7 mph 23.0 mph N/A   Clear
6:53 AM 53.1 °F 46.0 °F 77% 29.78 in 10.0 mi West 15.0 mph 23.0 mph N/A   Clear
7:22 AM 53.1 °F 46.9 °F 80% 29.77 in 10.0 mi WNW 13.8 mph - N/A   Mostly Cloudy
7:53 AM 54.0 °F 46.9 °F 77% 29.81 in 10.0 mi West 15.0 mph 25.3 mph N/A   Mostly Cloudy
8:08 AM 55.9 °F 48.0 °F 75% 29.79 in 10.0 mi WNW 17.3 mph 27.6 mph N/A   Scattered Clouds
8:32 AM 55.9 °F 48.0 °F 75% 29.80 in 10.0 mi West 18.4 mph 26.5 mph N/A   Mostly Cloudy
8:53 AM 55.9 °F 48.0 °F 75% 29.83 in 10.0 mi West 18.4 mph 25.3 mph N/A   Overcast
9:53 AM 55.9 °F 48.0 °F 75% 29.86 in 10.0 mi WNW 12.7 mph - N/A   Overcast
10:53 AM 57.9 °F 48.9 °F 72% 29.87 in 10.0 mi West 12.7 mph 23.0 mph N/A   Overcast
11:19 AM 59.0 °F 48.9 °F 69% 29.85 in 10.0 mi West 15.0 mph - N/A   Overcast
11:53 AM 60.1 °F 48.9 °F 67% 29.88 in 10.0 mi West 12.7 mph - N/A   Overcast
12:09 PM 59.0 °F 48.9 °F 69% 29.86 in 10.0 mi West 10.4 mph - N/A   Overcast
12:53 PM 61.0 °F 48.0 °F 62% 29.90 in 10.0 mi WSW 15.0 mph - N/A   Overcast
1:53 PM 60.1 °F 48.0 °F 64% 29.92 in 10.0 mi West 16.1 mph - N/A   Overcast
2:53 PM 60.1 °F 46.9 °F 62% 29.94 in 10.0 mi West 15.0 mph - N/A   Overcast
3:53 PM 64.0 °F 46.0 °F 52% 29.94 in 10.0 mi West 12.7 mph - N/A   Mostly Cloudy
4:53 PM 63.0 °F 46.0 °F 54% 29.96 in 10.0 mi WNW 10.4 mph - N/A   Overcast
5:53 PM 62.1 °F 48.0 °F 60% 29.97 in 10.0 mi WNW 12.7 mph - N/A   Overcast
6:53 PM 62.1 °F 48.9 °F 62% 29.99 in 10.0 mi WNW 17.3 mph 23.0 mph N/A   Scattered Clouds
7:53 PM 60.1 °F 46.0 °F 60% 30.00 in 10.0 mi NNW 8.1 mph - N/A   Scattered Clouds
8:53 PM 57.0 °F 45.0 °F 64% 30.00 in 10.0 mi NW 5.8 mph - N/A   Clear
9:53 PM 52.0 °F 44.1 °F 74% 30.01 in 10.0 mi NNW 3.5 mph - N/A   Clear
10:53 PM 50.0 °F 44.1 °F 80% 30.06 in 10.0 mi Calm Calm - N/A   Partly Cloudy
11:53 PM 46.9 °F 44.1 °F 90% 30.07 in 10.0 mi Calm Calm - N/A   Clear